JM2FRX-13 Weather Reports


Display with metric or nautical units.
time (UTC)temp
F
wind
direction
speed
MPH
gust
MPH
rain 1hr
in
rain 24hr
in
rain mn
in
humidity
%
barometer
mb
20260509143731 58 285 0.0 2.0 0.00 0.00 0.00 78 1017.8
20260509140809 59 285 0.0 1.0 0.00 0.00 0.00 77 1017.6
20260509133729 60 285 1.0 3.0 0.00 0.00 0.00 77 1017.4
20260509130751 61 285 0.0 1.0 0.00 0.00 0.00 74 1017.2
20260509123731 62 285 0.0 2.0 0.00 0.00 0.00 71 1016.8
20260509120732 65 306 2.0 4.0 0.00 0.00 0.00 67 1016.6
20260509113733 66 23 2.0 6.0 0.00 0.00 0.00 68 1016.5
20260509110730 65 23 2.0 5.0 0.00 0.00 0.00 74 1016.4
20260509103730 65 51 3.0 9.0 0.00 0.00 0.00 81 1015.5
20260509100751 66 343 5.0 9.0 0.00 0.00 0.00 82 1015.0
20260509093751 67 316 4.0 10.0 0.00 0.00 0.00 77 1014.3
20260509090750 69 304 4.0 8.0 0.00 0.00 0.00 70 1013.7
20260509083750 71 243 2.0 11.0 0.00 0.00 0.00 65 1013.1
20260509080751 75 231 4.0 9.0 0.00 0.00 0.00 47 1012.5
20260509073808 76 263 4.0 9.0 0.00 0.00 0.00 34 1012.2
20260509070748 77 265 6.0 11.0 0.00 0.00 0.00 34 1011.9
20260509063729 77 258 4.0 12.0 0.00 0.00 0.00 35 1011.5
20260509060730 78 250 8.0 13.0 0.00 0.00 0.00 35 1010.9
20260509053731 75 113 6.0 15.0 0.00 0.00 0.00 51 1011.2
20260509050752 74 170 6.0 14.0 0.00 0.00 0.00 51 1011.4
20260509043746 75 136 5.0 9.0 0.00 0.00 0.00 47 1011.9
20260509040746 74 231 6.0 11.0 0.00 0.00 0.00 47 1012.1
20260509033748 73 120 5.0 9.0 0.00 0.00 0.00 45 1012.2
20260509030748 73 163 6.0 9.0 0.00 0.00 0.00 43 1012.3
20260509023751 74 277 4.0 8.0 0.00 0.00 0.00 42 1012.2
20260509020730 73 263 5.0 12.0 0.00 0.00 0.00 45 1012.2
20260509013731 72 273 5.0 11.0 0.00 0.00 0.00 46 1012.5
20260509010748 71 156 4.0 14.0 0.00 0.00 0.00 49 1012.2
20260509003729 69 283 7.0 15.0 0.00 0.00 0.00 51 1011.8
20260509000730 68 265 5.0 16.0 0.00 0.00 0.00 51 1011.4
20260508233730 68 256 7.0 15.0 0.00 0.00 0.00 51 1011.0
20260508230731 66 239 7.0 16.0 0.00 0.00 0.00 53 1010.9
20260508223732 64 272 5.0 12.0 0.00 0.00 0.00 55 1010.9
20260508220738 62 275 4.0 13.0 0.00 0.00 0.00 57 1010.9
20260508213738 62 250 4.0 11.0 0.00 0.00 0.00 57 1010.8
20260508210738 60 259 3.0 13.0 0.00 0.00 0.00 59 1010.5
20260508203738 60 264 7.0 18.0 0.00 0.00 0.00 57 1010.2
20260508200739 60 233 4.0 13.0 0.00 0.00 0.00 57 1009.8
20260508193740 61 276 4.0 16.0 0.00 0.00 0.00 54 1009.4
20260508190736 61 240 7.0 21.0 0.00 0.00 0.00 52 1008.5
20260508183737 61 268 12.0 22.0 0.00 0.00 0.00 51 1008.0
20260508180738 61 54 12.0 20.0 0.00 0.00 0.00 48 1007.7
20260508173738 61 281 9.0 25.0 0.00 0.00 0.00 46 1007.7
20260508170740 62 268 8.0 23.0 0.00 0.00 0.00 43 1007.6
20260508163740 62 220 8.0 22.0 0.00 0.00 0.00 39 1007.7
20260508160801 63 276 8.0 18.0 0.00 0.00 0.00 35 1007.9
20260508153736 64 274 5.0 16.0 0.00 0.00 0.00 38 1007.9
20260508150738 65 271 7.0 21.0 0.00 0.00 0.00 44 1008.3